RYR6FF LIBR-LIMC

Flight info

Callsign RYR6FF
Flight time N/A
Altitude 38000
Route FASAN P92 BAR DCT TUFTE DCT LOMED DCT BEROK M730 MIVKI T648 MEBUR
Aircraft B738/M-SDE2E3FGHIRWXY/LB1

Departure

Time 2026-04-23 20:02
Airport Brindisi Airport (LIBR)

Arrival

Time N/A
Airport Milan Malpensa International Airport (LIMC)
Time Latitude Longitude Altitude Speed Heading
2026-04-23 19:29 40.65785 17.94070 43 ft 0 kts 322°
2026-04-23 19:54 40.65768 17.94087 40 ft 4 kts 326°
2026-04-23 19:54 40.65745 17.94106 43 ft 4 kts 333°
2026-04-23 19:54 40.65720 17.94120 41 ft 4 kts 345°
2026-04-23 19:54 40.65695 17.94123 39 ft 4 kts 20°
2026-04-23 19:55 40.65684 17.94116 40 ft 0 kts 52°
2026-04-23 19:58 40.65693 17.94130 40 ft 6 kts 52°
2026-04-23 19:58 40.65722 17.94180 43 ft 7 kts 52°
2026-04-23 19:58 40.65752 17.94231 43 ft 7 kts 52°
2026-04-23 19:59 40.65782 17.94283 43 ft 8 kts 52°
2026-04-23 19:59 40.65825 17.94356 42 ft 12 kts 52°
2026-04-23 19:59 40.65870 17.94432 41 ft 5 kts 53°
2026-04-23 19:59 40.65891 17.94469 41 ft 6 kts 53°
2026-04-23 20:00 40.65925 17.94528 38 ft 9 kts 53°
2026-04-23 20:00 40.65944 17.94546 38 ft 2 kts 12°
2026-04-23 20:00 40.65958 17.94540 38 ft 3 kts 332°
2026-04-23 20:00 40.65968 17.94529 37 ft 3 kts 318°
2026-04-23 20:01 40.65969 17.94528 37 ft 0 kts 318°
2026-04-23 20:01 40.66070 17.94406 39 ft 52 kts 317°
2026-04-23 20:01 40.66495 17.93887 40 ft 113 kts 317°
2026-04-23 20:01 40.67182 17.93045 154 ft 149 kts 321°
2026-04-23 20:02 40.67966 17.92141 784 ft 153 kts 321°
2026-04-23 20:02 40.68513 17.91533 1210 ft 158 kts 322°
2026-04-23 20:02 40.69349 17.90551 1808 ft 169 kts 319°
2026-04-23 20:02 40.70263 17.89405 2018 ft 193 kts 319°
2026-04-23 20:03 40.71284 17.88136 2305 ft 209 kts 320°
2026-04-23 20:03 40.72754 17.86327 2796 ft 230 kts 320°
2026-04-23 20:03 40.73950 17.84865 3368 ft 239 kts 321°
2026-04-23 20:03 40.75192 17.83350 3989 ft 246 kts 321°
2026-04-23 20:04 40.75986 17.82241 4336 ft 257 kts 308°
2026-04-23 20:04 40.76672 17.80022 5013 ft 271 kts 284°
2026-04-23 20:04 40.76738 17.77481 5661 ft 280 kts 271°
2026-04-23 20:04 40.76667 17.74891 6318 ft 287 kts 271°
2026-04-23 20:05 40.76577 17.72239 6993 ft 290 kts 270°
2026-04-23 20:05 40.76486 17.69579 7731 ft 292 kts 273°
2026-04-23 20:05 40.76838 17.66994 8559 ft 283 kts 295°
2026-04-23 20:05 40.77676 17.64634 9268 ft 286 kts 302°
2026-04-23 20:06 40.78619 17.62303 10018 ft 289 kts 303°
2026-04-23 20:06 40.79575 17.59964 10534 ft 302 kts 302°
2026-04-23 20:06 40.80605 17.57430 10718 ft 325 kts 301°
2026-04-23 20:06 40.81681 17.54735 11174 ft 337 kts 301°
2026-04-23 20:07 40.82697 17.52158 11830 ft 340 kts 301°
2026-04-23 20:07 40.83792 17.49367 12571 ft 344 kts 301°
2026-04-23 20:07 40.84900 17.46542 13301 ft 348 kts 301°
2026-04-23 20:07 40.86018 17.43686 14064 ft 352 kts 301°
2026-04-23 20:08 40.87173 17.40807 14722 ft 357 kts 303°
2026-04-23 20:08 40.88406 17.37933 15385 ft 362 kts 304°
2026-04-23 20:08 40.89662 17.35076 16056 ft 367 kts 304°
2026-04-23 20:08 40.90954 17.32141 16736 ft 372 kts 304°
2026-04-23 20:09 40.92259 17.29167 17411 ft 377 kts 304°
2026-04-23 20:09 40.93580 17.26138 18073 ft 383 kts 304°
2026-04-23 20:09 40.94914 17.23065 18674 ft 388 kts 304°
2026-04-23 20:09 40.96263 17.19950 19242 ft 393 kts 304°
2026-04-23 20:10 40.97628 17.16785 19804 ft 398 kts 304°
2026-04-23 20:10 40.99003 17.13592 20367 ft 403 kts 304°
2026-04-23 20:10 41.00398 17.10350 20917 ft 407 kts 304°
2026-04-23 20:10 41.01804 17.07078 21468 ft 412 kts 304°
2026-04-23 20:11 41.03231 17.03756 22021 ft 416 kts 304°
2026-04-23 20:11 41.04649 17.00447 22540 ft 421 kts 304°
2026-04-23 20:11 41.06100 16.97060 23068 ft 425 kts 304°
2026-04-23 20:11 41.07566 16.93633 23590 ft 429 kts 304°
2026-04-23 20:12 41.09043 16.90177 24044 ft 433 kts 304°
2026-04-23 20:12 41.10525 16.86703 24566 ft 434 kts 304°
2026-04-23 20:12 41.12011 16.83216 25101 ft 434 kts 304°
2026-04-23 20:12 41.13498 16.79725 25595 ft 435 kts 304°
2026-04-23 20:13 41.15012 16.76245 26059 ft 436 kts 306°
2026-04-23 20:13 41.16624 16.72828 26514 ft 438 kts 307°
2026-04-23 20:13 41.18270 16.69486 26968 ft 439 kts 308°
2026-04-23 20:13 41.19959 16.66100 27411 ft 441 kts 308°
2026-04-23 20:14 41.21653 16.62707 27844 ft 442 kts 308°
2026-04-23 20:14 41.23353 16.59281 28269 ft 444 kts 308°
2026-04-23 20:14 41.25047 16.55844 28680 ft 446 kts 308°
2026-04-23 20:14 41.26748 16.52375 29080 ft 448 kts 307°
2026-04-23 20:15 41.28449 16.48890 29473 ft 450 kts 307°
2026-04-23 20:15 41.30152 16.45390 29858 ft 452 kts 307°
2026-04-23 20:15 41.31864 16.41867 30202 ft 454 kts 307°
2026-04-23 20:15 41.33551 16.38388 30510 ft 456 kts 307°